EDT,Max TemperatureF,Mean TemperatureF,Min TemperatureF,Max Dew PointF,MeanDew PointF,Min DewpointF,Max Humidity, Mean Humidity, Min Humidity, Max Sea Level PressureIn, Mean Sea Level PressureIn, Min Sea Level PressureIn, Max VisibilityMiles, Mean VisibilityMiles, Min VisibilityMiles, Max Wind SpeedMPH, Mean Wind SpeedMPH, Max Gust SpeedMPH,PrecipitationIn, CloudCover, Events, WindDirDegrees
2013-3-1,66,62,57,55,47,37,73,58,45,30.04,29.98,29.94,10,10,10,17,9,23,0.00,6,,351
2013-3-2,63,58,53,43,40,37,59,53,43,30.07,30.03,30.01,10,10,10,21,10,24,0.00,5,,360
2013-3-3,61,52,43,47,41,34,86,66,47,30.18,30.07,30.00,10,10,6,26,8,31,0.11,5,Rain,347
2013-3-4,69,54,39,45,37,31,85,58,24,30.25,30.18,30.14,10,10,10,14,5,18,0.00,0,,2
2013-3-5,75,60,45,58,51,41,90,69,46,30.19,30.14,30.09,10,10,10,15,5,21,0.00,0,,204
2013-3-6,71,62,53,63,51,39,90,67,33,30.15,30.09,30.02,10,10,6,23,11,29,T,3,Rain,302
2013-3-7,69,58,46,46,37,31,72,52,27,30.23,30.18,30.13,10,10,10,18,9,23,0.00,0,,353
2013-3-8,79,62,45,50,43,35,89,59,22,30.24,30.19,30.13,10,10,7,14,6,17,0.00,0,,359
2013-3-9,79,64,49,52,46,38,86,57,25,30.22,30.17,30.12,10,10,8,13,7,17,0.00,0,,74
2013-3-10,81,69,56,58,52,50,83,58,35,30.17,30.11,30.04,10,10,10,18,8,25,0.00,2,,107
2013-3-11,80,70,59,61,57,55,90,67,42,30.10,30.02,29.94,10,10,10,18,9,26,0.00,1,,146
2013-3-12,76,67,57,67,62,52,87,82,75,30.05,29.97,29.91,10,9,2,18,10,23,0.01,5,Rain,232
2013-3-13,79,67,55,52,43,33,86,52,19,30.19,30.11,30.04,10,10,10,17,10,23,0.00,0,,353
2013-3-14,75,63,51,48,37,21,77,47,14,30.26,30.20,30.15,10,10,10,23,10,28,0.00,0,,4
2013-3-15,77,61,45,46,37,24,83,50,17,30.30,30.23,30.16,10,10,10,13,7,18,0.00,0,,33
2013-3-16,76,63,50,51,46,39,89,59,29,30.21,30.16,30.10,10,10,7,15,5,20,0.00,0,,186
2013-3-17,80,67,54,57,54,51,86,67,45,30.15,30.09,30.03,10,10,10,14,4,20,0.00,2,,178
2013-3-18,80,71,62,70,64,57,90,83,62,30.06,30.01,29.94,10,8,2,16,7,24,0.20,5,Rain,177
2013-3-19,83,75,66,65,65,64,93,81,55,30.02,29.96,29.88,10,10,6,17,5,25,T,1,,256
2013-3-20,79,71,62,65,61,57,93,80,50,30.00,29.93,29.84,10,10,8,23,6,28,0.07,2,Rain,279
2013-3-21,76,65,54,63,49,33,93,62,21,29.97,29.92,29.87,10,10,10,18,8,24,0.00,3,,340
2013-3-22,81,66,50,69,54,37,93,65,48,30.00,29.95,29.91,10,10,10,16,6,22,0.03,3,,151
2013-3-23,84,77,69,72,68,66,100,82,58,29.98,29.91,29.83,10,8,2,18,8,26,0.31,4,Rain,173
2013-3-24,83,77,71,73,71,66,94,84,69,29.86,29.76,29.70,10,9,3,23,12,32,0.05,6,Rain,217
2013-3-25,78,68,57,73,53,30,97,61,20,30.06,29.88,29.77,10,9,5,20,11,25,0.00,3,,328
2013-3-26,66,58,49,44,37,31,66,47,31,30.26,30.15,30.05,10,10,10,24,13,33,0.00,1,,345
2013-3-27,66,55,44,43,34,29,65,49,27,30.32,30.26,30.21,10,10,10,16,9,21,0.00,0,,357
2013-3-28,76,60,43,47,37,25,83,50,15,30.31,30.25,30.18,10,10,10,16,7,21,0.00,0,,8
2013-3-29,78,63,48,50,41,33,80,50,19,30.33,30.26,30.20,10,10,10,15,6,20,0.00,0,,48
2013-3-30,79,66,53,53,50,44,89,58,35,30.27,30.21,30.14,10,10,10,15,5,22,0.00,0,,159
2013-3-31,82,70,57,62,56,52,86,64,39,30.19,30.11,30.04,10,10,10,16,6,21,0.00,0,,176